Weather History for KHWD - June, 2013

Change the Weather History Date:

Friday, June 21, 2013

  Actual Average Record
Temperature  
Mean Temperature 64 °F 64 °F  
Max Temperature 74 °F 73 °F 93 °F (2011)
Min Temperature 54 °F 56 °F 50 °F (2014)
Degree Days  
Heating Degree Days 1    
Month to date heating degree days 42  
Since 1 June heating degree days 42  
Since 1 July heating degree days 2322  
Cooling Degree Days 0    
Month to date cooling degree days 7  
Year to date cooling degree days 54  
Since 1 June cooling degree days 7  
Growing Degree Days 13 (Base 50)    
Moisture  
Dew Point 51 °F    
Average Humidity 68    
Maximum Humidity 89    
Minimum Humidity 47    
Precipitation  
Precipitation 0.00 in - 0.00 in (2015)
Month to date precipitation T  
Year to date precipitation 1.48  
Since 1 July precipitation 7.46  
Sea Level Pressure  
Sea Level Pressure 29.99 in    
Wind  
Wind Speed 7 mph (West)    
Max Wind Speed 17 mph    
Max Gust Speed 21 mph    
Visibility 10 miles    
Events      
T = Trace of Precipitation, MM = Missing Value Source: NWS Daily Summary

Daily Weather History Graph

Daily Weather History Graph

Search for Another Location

Airport or City:

Trip Planner

Search our weather history database for the weather conditions in past years. The results will help you decide how hot, cold, wet, or windy it might be!

Date:

Astronomy

Jun. 21, 2013 Rise Set
Actual Time 5:47 AM PDT 8:33 PM PDT
Civil Twilight 5:15 AM PDT 9:04 PM PDT
Nautical Twilight 4:36 AM PDT 9:43 PM PDT
Astronomical Twilight 3:52 AM PDT 10:28 PM PDT
Moon 6:51 PM PDT (6/21) 4:05 AM PDT (6/21)
Length of Visible Light 15h 48m
Length of Day
14h 46m
Waxing Gibbous, 96% of the Moon is Illuminated
Jun 21
Waxing Gibbous
Jun 23
Full
Jun 29
Last Quarter
Jul 8
New
Jul 15
First Quarter

Hourly Weather History & Observations

Time (PDT) Temp. Dew Point Humidity Pressure Visibility Wind Dir Wind Speed Gust Speed Precip Events Conditions
12:54 AM 57.0 °F 50.0 °F 77% 30.01 in 10.0 mi WSW 8.1 mph - N/A   Clear
1:54 AM 55.0 °F 50.0 °F 83% 30.01 in 10.0 mi SSW 6.9 mph - N/A   Clear
2:25 AM 55.4 °F 51.8 °F 88% 29.97 in 10.0 mi SW 6.9 mph - N/A   Mostly Cloudy
2:54 AM 55.0 °F 51.1 °F 86% 30.00 in 10.0 mi SW 8.1 mph - N/A   Scattered Clouds
3:29 AM 55.4 °F 51.8 °F 88% 29.97 in 10.0 mi SW 6.9 mph - N/A   Mostly Cloudy
3:54 AM 55.0 °F 51.1 °F 86% 29.99 in 10.0 mi SW 4.6 mph - N/A   Mostly Cloudy
4:29 AM 55.4 °F 50.0 °F 82% 29.96 in 10.0 mi West 5.8 mph - N/A   Scattered Clouds
4:54 AM 54.0 °F 50.0 °F 86% 29.99 in 10.0 mi WNW 3.5 mph - N/A   Clear
5:54 AM 55.0 °F 50.0 °F 83% 29.99 in 10.0 mi Calm Calm - N/A   Clear
6:54 AM 55.9 °F 50.0 °F 80% 30.00 in 10.0 mi ENE 4.6 mph - N/A   Clear
7:54 AM 59.0 °F 51.1 °F 75% 30.01 in 10.0 mi Calm Calm - N/A   Clear
8:54 AM 61.0 °F 51.1 °F 70% 30.02 in 10.0 mi Calm Calm - N/A   Clear
9:54 AM 64.0 °F 52.0 °F 65% 30.01 in 10.0 mi WNW 5.8 mph - N/A   Clear
10:54 AM 68.0 °F 50.0 °F 52% 30.01 in 10.0 mi Variable 4.6 mph - N/A   Clear
11:54 AM 70.0 °F 48.0 °F 46% 30.01 in 10.0 mi West 8.1 mph - N/A   Clear
12:54 PM 72.0 °F 53.1 °F 51% 30.01 in 10.0 mi WNW 11.5 mph - N/A   Clear
1:54 PM 71.1 °F 52.0 °F 51% 30.01 in 10.0 mi West 12.7 mph - N/A   Clear
2:54 PM 69.1 °F 54.0 °F 58% 30.01 in 10.0 mi WNW 13.8 mph - N/A   Clear
3:54 PM 66.9 °F 53.1 °F 61% 30.00 in 10.0 mi West 13.8 mph - N/A   Clear
4:54 PM 66.9 °F 53.1 °F 61% 30.00 in 10.0 mi WNW 9.2 mph - N/A   Clear
5:54 PM 64.9 °F 53.1 °F 65% 29.98 in 10.0 mi WSW 10.4 mph 17.3 mph N/A   Clear
6:54 PM 64.0 °F 52.0 °F 65% 29.98 in 10.0 mi West 9.2 mph - N/A   Clear
7:54 PM 61.0 °F 52.0 °F 72% 29.98 in 10.0 mi WNW 5.8 mph - N/A   Clear
8:54 PM 60.1 °F 51.1 °F 72% 29.97 in 10.0 mi West 3.5 mph - N/A   Clear
9:54 PM 60.1 °F 52.0 °F 75% 29.98 in 10.0 mi West 6.9 mph - N/A   Clear
10:54 PM 59.0 °F 51.1 °F 75% 29.98 in 10.0 mi West 6.9 mph - N/A   Clear
11:54 PM 57.9 °F 50.0 °F 75% 29.98 in 10.0 mi WSW 4.6 mph - N/A   Clear